Date String (YYYY-MM-DD hh:mm:ss) UTC,Instrument flags,absolute air pressure of the measurement (hPa),sample flow rate (lpm),inlet stack bypass flow (lpm),air temperature of the measurement (°C),ambient temperature measured by the external sensor (°C),aerosol sample conditioner tube jacket temperature (°C),OPC LED temperature (°C),internal box temperature (°C),relative humidity of the measurement (%),span deviation,mass concentration of particles derived from Lorenz-Mie calculation of OPC scattering (μg/m³),mass concentration of particles derived from Lorenz-Mie calculation of OPC scattering (μg/m³),mass concentration of particles derived from Lorenz-Mie calculation of OPC scattering (μg/m³)
DateTimeUTC,F1_M11,P_M11,Q1_M11,Q2_M11,T1_M11,T2_M11,T3_M11,T4_M11,T5_M11,U1_M11,ZSPAN_M11,X0_M11,X2_M11,X1_M11
2023-12-31 15:00:00,SystemResetWarning,0830.2,5.00,000.00,020.6,019.8,000.0,028.9,022.0,13.1,0000.0,0009.46,0003.71,0003.21
2023-12-31 15:01:00,SystemResetWarning,0830.2,5.00,000.00,020.6,019.8,000.0,028.9,022.0,13.0,0000.0,0008.88,0003.71,0003.21
2023-12-31 15:02:00,SystemResetWarning,0830.2,5.00,000.00,020.6,019.8,000.0,028.9,022.0,13.0,0000.0,0008.60,0003.71,0003.22
2023-12-31 15:03:00,SystemResetWarning,0830.2,5.00,000.00,020.6,019.8,000.0,028.9,022.0,12.9,0000.0,0008.58,0003.70,0003.21
2023-12-31 15:04:00,SystemResetWarning,0830.2,5.00,000.00,020.6,019.8,000.0,028.9,022.0,12.9,0000.0,0008.05,0003.67,0003.21
2023-12-31 15:05:00,SystemResetWarning,0830.2,5.00,000.00,020.6,019.7,000.0,028.9,022.0,12.8,0000.0,0007.92,0003.68,0003.21
2023-12-31 15:06:00,SystemResetWarning,0830.2,5.00,000.00,020.6,019.7,000.0,028.9,022.0,12.8,0000.0,0007.93,0003.69,0003.22
2023-12-31 15:07:00,SystemResetWarning,0830.2,5.00,000.00,020.6,019.7,000.0,028.9,022.0,12.9,0000.0,0008.01,0003.68,0003.21
2023-12-31 15:08:00,SystemResetWarning,0830.2,5.00,000.00,020.6,019.7,000.0,028.9,021.9,13.0,0000.0,0008.29,0003.69,0003.20
2023-12-31 15:09:00,SystemResetWarning,0830.2,4.99,000.00,020.6,019.7,000.0,028.9,021.9,13.1,0000.0,0008.24,0003.67,0003.20
2023-12-31 15:10:00,SystemResetWarning,0830.2,5.00,000.00,020.6,019.7,000.0,028.9,021.9,13.1,0000.0,0008.62,0003.62,0003.19
2023-12-31 15:11:00,SystemResetWarning,0830.3,5.00,000.00,020.6,019.7,000.0,028.9,021.9,13.1,0000.0,0007.81,0003.60,0003.19
2023-12-31 15:12:00,SystemResetWarning,0830.3,4.99,000.00,020.6,019.7,000.0,028.9,022.0,13.1,0000.0,0008.79,0003.62,0003.20
2023-12-31 15:13:00,SystemResetWarning,0830.2,5.00,000.00,020.6,019.7,000.0,028.9,021.9,13.1,0000.0,0009.26,0003.65,0003.21
2023-12-31 15:14:00,SystemResetWarning,0830.3,5.00,000.00,020.6,019.7,000.0,028.9,021.9,13.1,0000.0,0009.89,0003.68,0003.22
2023-12-31 15:15:00,SystemResetWarning,0830.2,5.00,000.00,020.6,019.7,000.0,028.9,021.9,13.1,0000.0,0010.20,0003.73,0003.25
2023-12-31 15:16:00,SystemResetWarning,0830.2,5.00,000.00,020.6,019.8,000.0,028.9,021.9,13.0,0000.0,0010.10,0003.77,0003.28
2023-12-31 15:17:00,SystemResetWarning,0830.2,5.00,000.00,020.6,019.8,000.0,028.9,021.9,13.0,0000.0,0010.36,0003.82,0003.29
2023-12-31 15:18:00,SystemResetWarning,0830.2,5.00,000.00,020.6,019.8,000.0,028.9,021.9,13.0,0000.0,0010.54,0003.84,0003.30
2023-12-31 15:19:00,SystemResetWarning,0830.3,5.00,000.00,020.6,019.8,000.0,028.9,021.9,13.0,0000.0,0010.28,0003.83,0003.30
2023-12-31 15:20:00,SystemResetWarning,0830.3,5.01,000.00,020.6,019.8,000.0,028.9,021.9,13.1,0000.0,0010.51,0003.85,0003.31
2023-12-31 15:21:00,SystemResetWarning,0830.2,5.00,000.00,020.6,019.8,000.0,028.9,021.9,13.1,0000.0,0010.14,0003.86,0003.32
2023-12-31 15:22:00,SystemResetWarning,0830.3,4.99,000.00,020.6,019.8,000.0,028.9,021.9,13.1,0000.0,0010.58,0003.88,0003.33
2023-12-31 15:23:00,SystemResetWarning,0830.3,5.00,000.00,020.6,019.7,000.0,028.9,021.9,13.1,0000.0,0010.45,0003.92,0003.34
2023-12-31 15:24:00,SystemResetWarning,0830.2,5.00,000.00,020.5,019.7,000.0,028.9,021.9,13.1,0000.0,0009.99,0003.93,0003.34
2023-12-31 15:25:00,SystemResetWarning,0830.3,5.00,000.00,020.5,019.7,000.0,028.9,021.8,13.3,0000.0,0009.80,0003.96,0003.35
2023-12-31 15:26:00,SystemResetWarning,0830.3,5.00,000.00,020.5,019.7,000.0,028.9,021.9,13.4,0000.0,0010.48,0003.97,0003.34
2023-12-31 15:27:00,SystemResetWarning,0830.3,5.00,000.00,020.5,019.7,000.0,028.9,021.9,13.4,0000.0,0011.76,0003.97,0003.32
2023-12-31 15:28:00,SystemResetWarning,0830.3,4.99,000.00,020.5,019.7,000.0,028.9,021.8,13.5,0000.0,0012.28,0004.00,0003.32
2023-12-31 15:29:00,SystemResetWarning,0830.3,4.99,000.00,020.5,019.7,000.0,028.9,021.8,13.5,0000.0,0012.72,0004.06,0003.33
2023-12-31 15:30:00,SystemResetWarning,0830.3,5.00,000.00,020.5,019.7,000.0,028.9,021.8,13.4,0000.0,0012.65,0004.08,0003.34
2023-12-31 15:31:00,SystemResetWarning,0830.3,5.00,000.00,020.5,019.7,000.0,028.9,021.8,13.4,0000.0,0012.75,0004.12,0003.36
2023-12-31 15:32:00,SystemResetWarning,0830.3,4.99,000.00,020.5,019.7,000.0,028.9,021.8,13.5,0000.0,0012.88,0004.19,0003.39
2023-12-31 15:33:00,SystemResetWarning,0830.3,5.00,000.00,020.5,019.7,000.0,028.9,021.8,13.5,0000.0,0012.79,0004.26,0003.43
2023-12-31 15:34:00,SystemResetWarning,0830.3,5.00,000.00,020.5,019.7,000.0,028.8,021.8,13.5,0000.0,0012.39,0004.27,0003.47
2023-12-31 15:35:00,SystemResetWarning,0830.3,5.00,000.00,020.5,019.7,000.0,028.8,021.7,13.5,0000.0,0012.30,0004.29,0003.51
2023-12-31 15:36:00,SystemResetWarning,0830.3,5.01,000.00,020.5,019.7,000.0,028.8,021.7,13.5,0000.0,0011.78,0004.25,0003.54
2023-12-31 15:37:00,SystemResetWarning,0830.3,5.01,000.00,020.5,019.7,000.0,028.8,021.7,13.5,0000.0,0010.84,0004.26,0003.57
2023-12-31 15:38:00,SystemResetWarning,0830.3,5.00,000.00,020.5,019.7,000.0,028.8,021.7,13.5,0000.0,0010.47,0004.30,0003.60
2023-12-31 15:39:00,SystemResetWarning,0830.3,5.00,000.00,020.5,019.7,000.0,028.8,021.7,13.4,0000.0,0011.46,0004.34,0003.64
2023-12-31 15:40:00,SystemResetWarning,0830.4,5.00,000.00,020.5,019.7,000.0,028.8,021.7,13.4,0000.0,0010.80,0004.26,0003.66
2023-12-31 15:41:00,SystemResetWarning,0830.4,5.00,000.00,020.5,019.6,000.0,028.8,021.7,13.4,0000.0,0010.89,0004.27,0003.69
2023-12-31 15:42:00,SystemResetWarning,0830.5,5.00,000.00,020.5,019.6,000.0,028.8,021.7,13.4,0000.0,0011.10,0004.29,0003.71
2023-12-31 15:43:00,SystemResetWarning,0830.4,5.00,000.00,020.5,019.6,000.0,028.8,021.7,13.5,0000.0,0011.04,0004.30,0003.72
2023-12-31 15:44:00,SystemResetWarning,0830.4,5.00,000.00,020.5,019.6,000.0,028.8,021.6,13.4,0000.0,0010.97,0004.27,0003.72
2023-12-31 15:45:00,SystemResetWarning,0830.7,5.00,000.00,020.4,019.6,000.0,028.8,021.7,13.4,0000.0,0010.97,0004.28,0003.74
2023-12-31 15:46:00,SystemResetWarning,0830.5,5.00,000.00,020.4,019.6,000.0,028.8,021.7,13.5,0000.0,0011.10,0004.30,0003.74
2023-12-31 15:47:00,SystemResetWarning,0830.4,5.00,000.00,020.4,019.6,000.0,028.8,021.7,13.6,0000.0,0011.20,0004.34,0003.75
2023-12-31 15:48:00,SystemResetWarning,0830.5,5.00,000.00,020.4,019.6,000.0,028.8,021.7,13.7,0000.0,0011.87,0004.36,0003.75
2023-12-31 15:49:00,SystemResetWarning,0830.5,5.00,000.00,020.4,019.6,000.0,028.8,021.7,13.7,0000.0,0011.77,0004.36,0003.77
2023-12-31 15:50:00,SystemResetWarning,0830.6,5.00,000.00,020.4,019.6,000.0,028.7,021.7,13.8,0000.0,0009.82,0004.34,0003.79
2023-12-31 15:51:00,SystemResetWarning,0830.6,5.00,000.00,020.4,019.6,000.0,028.7,021.6,13.7,0000.0,0009.98,0004.41,0003.82
2023-12-31 15:52:00,SystemResetWarning,0830.7,5.00,000.00,020.4,019.6,000.0,028.7,021.6,13.8,0000.0,0009.95,0004.46,0003.84
2023-12-31 15:53:00,SystemResetWarning,0830.6,5.00,000.00,020.4,019.6,000.0,028.7,021.6,13.8,0000.0,0009.72,0004.49,0003.85
2023-12-31 15:54:00,SystemResetWarning,0830.6,5.00,000.00,020.3,019.6,000.0,028.7,021.6,13.9,0000.0,0010.18,0004.48,0003.85
2023-12-31 15:55:00,SystemResetWarning,0830.6,5.00,000.00,020.3,019.6,000.0,028.7,021.5,14.0,0000.0,0010.14,0004.48,0003.85
2023-12-31 15:56:00,SystemResetWarning,0830.6,5.00,000.00,020.3,019.5,000.0,028.7,021.5,14.1,0000.0,0009.60,0004.49,0003.84
2023-12-31 15:57:00,SystemResetWarning,0830.7,5.00,000.00,020.3,019.5,000.0,028.7,021.6,14.0,0000.0,0009.58,0004.48,0003.84
2023-12-31 15:58:00,SystemResetWarning,0830.7,5.00,000.00,020.3,019.5,000.0,028.7,021.6,14.1,0000.0,0009.57,0004.47,0003.84
2023-12-31 15:59:00,SystemResetWarning,0830.7,5.01,000.00,020.3,019.5,000.0,028.7,021.6,14.1,0000.0,0009.24,0004.45,0003.85
